Location: Mococo
(38.0255°N, 122.1161°W)
Time: 12:39:51
(UTC+00:00)

NOSS 3-1 (A) - Pass Details

Date: 13 February 2026
Orbit: 613 x 1593 km, 63.4° (Epoch: 10 January)

Event Time Altitude Azimuth Distance (km) Brightness Sun altitude
Exits shadow 13:25:18 - 198° (SSW) 2,848 5.8 -19.3°
Reaches altitude 10° 13:27:26 10° 194° (SSW) 1,989 5.0 -18.9°
Maximum altitude 13:31:43 53° 117° (ESE) 826 3.5 -18.1°
Drops below altitude 10° 13:36:39 10° 41° (NE) 2,295 6.0 -17.1°
Sets 13:39:20 0° 37° (NE) 3,359 6.8 -16.6°
